Regional Weather Roundup
Issued by NWS

Home | Current Version | Previous Version | Graphics & Text | Print | Product List | Glossary On
Versions: 1 2 3 4 5 6 7 8 9 10 11 12 13 14 15 16 17 18 19 20 21 22 23 24 25 26 27 28
000
ASUS45 KCYS 041710
RWRWY

WYOMING REGIONAL WEATHER ROUNDUP
NATIONAL WEATHER SERVICE CHEYENNE WY
1100 AM MDT WED MAY 04 2016

NOTE:  "FAIR" INDICATES FEW OR NO CLOUDS BELOW 12,000 FEET
WITH NO SIGNIFICANT WEATHER AND/OR OBSTRUCTIONS TO VISIBILITY.

WYZ001-041800-
YELLOWSTONE NATIONAL PARK

CITY           SKY/WX    TMP DP  RH WIND       PRES   REMARKS
LK YELLOWSTONE   N/A     48  23  37 E3        30.31F
W YELLOWSTONE  NOT AVBL

$$
WYZ002>013-054>058-071-098>099-041800-
NORTHERN WYOMING

CITY           SKY/WX    TMP DP  RH WIND       PRES   REMARKS
JACKSON        SUNNY     55  28  35 CALM      30.26F
CODY           FAIR      72  28  20 SW13G20   30.12F
GREYBULL       FAIR      71  32  23 S9        30.10F
WORLAND        FAIR      68  41  37 W5        30.12F
SHERIDAN       FAIR      72  49  44 N5        30.08F
BUFFALO        FAIR      71  36  27 E6        30.14F
GILLETTE       FAIR      71  42  35 S13       30.11F
HULETT         FAIR      70  39  32 CALM      30.15F
NEWCASTLE      FAIR      68  34  28 S10G20    30.17F

$$
WYZ014>020-022>026-101>103-041800-
CENTRAL WYOMING

CITY           SKY/WX    TMP DP  RH WIND       PRES   REMARKS
BIG PINEY      FAIR      58  26  29 CALM      30.29F
PINEDALE       FAIR      61  27  27 SE6       30.29F
DUBOIS         FAIR      63  25  23 NE3       30.25F
LANDER         FAIR      64  32  30 E6        30.19F
RIVERTON       FAIR      61  40  45 CALM      30.21F
CASPER         FAIR      67  35  30 SW13G23   30.19F
DOUGLAS        FAIR      67  39  35 S6        30.20F

$$
WYZ021-027>030-104>119-041800-
SOUTHERN WYOMING

CITY           SKY/WX    TMP DP  RH WIND       PRES   REMARKS
EVANSTON       FAIR      64  24  21 SW16G23   30.27S
KEMMERER         N/A     63  21  20 SW7       30.30S
FORT BRIDGER   FAIR      62  30  29 E8        30.30F
ROCK SPRINGS   FAIR      62  33  33 VRB3      30.28F
DIXON          FAIR      62  33  34 W3        30.32S
RAWLINS        FAIR      62  32  32 S5        30.30F
SARATOGA       FAIR      63  27  25 CALM      30.31F
LARAMIE        FAIR      58  28  32 VRB6      30.31S
CHEYENNE       FAIR      66  31  27 CALM      30.26F
TORRINGTON     FAIR      65  43  44 S5        30.19F
PINE BLUFFS    FAIR      63  37  39 CALM      30.25S

$$




USA.gov is the U.S. government's official web portal to all federal, state and local government web resources and services.